Weather in Petrozavodsk

Russia / Republic of Karelia     61°47′14″N   34°21′15″E
temp.,
°C
wind,
m/s
gust,
m/s
humid.,
%
clouds,
%
prec.,
mm/h
press.,
hPa
HPBL,
m
3 march, wed
wed300:00−6wnw310912 0.0 1012249
03:00−6w411955 0.0 1012321
06:00−3w5109595 0.0 1009497
09:00−3w5129397 0.0 1008574
12:00−1w5109291 0.0 1006451
15:00−1w6129296 0.3 1003749
18:00−2w51195100 1.0 998905
21:00−1wnw71483100 2.6 9961127
4 march, thu
thu400:00−3wnw6139591 0.3 9951037
03:00−5nnw5119196 1.4 997697
06:00−9nnw399697 0.1 998300
09:00−11wnw259787 0.1 1000155
12:00−6wnw259282 0.0 1000332
15:00−5nw358984 0.1 1001724
18:00−8wnw229398 0.1 100125
21:00−9nw279698 0.2 1001242
5 march, fri
fri500:00−11wnw259687 0.1 1002134
03:00−11wnw279688 0.2 1003202
06:00−10n389597 0.4 1005490
09:00−15nnw389793 0.4 1007267
12:00−11nnw369060 0.0 1009423
15:00−9nw248861 0.1 1011639
18:00−11wnw2794100 0.3 1011298
21:00−14wnw229673 0.3 101328
6 march, sat
sat600:00−15w229765 0.0 101432
03:00−14w229777 0.1 101542
06:00−15w239876 0.0 101459
09:00−14w369562 0.1 1013179
12:00−8wsw36907 0.0 1011349
15:00−7sw48853 0.0 1008719
18:00−8ssw4128979 0.0 1002660
21:00−7s6139189 0.4 996970
7 march, sun
sun700:00−6s61392100 0.6 988943
03:00−4s51295100 1.6 983715
06:00−8wsw61290100 1.0 982691
09:00−12sw389292 1.0 983381
12:00−10wnw128780 0.0 986453
15:00−8n369290 0.1 990610
18:00−10nne51094100 0.7 994864
21:00−11nne51293100 1.5 9991008